EW3529 Weather Reports


Display with metric or nautical units.
time (UTC)temp
F
wind
direction
speed
MPH
gust
MPH
rain 1hr
in
rain 24hr
in
rain mn
in
humidity
%
barometer
mb
20260507213408 64 172 6.0 12.0 0.00 0.16 0.01 69 1008.4
20260507212908 64 208 6.0 12.0 0.00 0.16 0.01 71 1008.4
20260507212408 65 162 3.0 13.0 0.00 0.16 0.01 68 1008.4
20260507211908 65 198 8.0 13.0 0.00 0.16 0.01 69 1008.4
20260507211408 64 198 8.0 14.0 0.00 0.16 0.01 68 1008.2
20260507210908 65 215 8.0 14.0 0.00 0.16 0.01 68 1008.2
20260507210408 64 209 9.0 14.0 0.00 0.16 0.01 74 1008.2
20260507205908 64 142 6.0 12.0 0.00 0.16 0.01 70 1008.2
20260507205408 63 193 3.0 12.0 0.00 0.16 0.01 71 1008.2
20260507204908 63 0 0.0 0.0 0.00 0.16 0.01 72 1008.3
20260507204409 62 0 0.0 0.0 0.00 0.16 0.01 74 1008.4
20260507203908 62 0 0.0 0.0 0.00 0.16 0.01 72 1008.4
20260507203408 62 0 0.0 0.0 0.00 0.16 0.01 73 1008.4
20260507202908 62 0 0.0 0.0 0.00 0.16 0.01 71 1008.3
20260507202408 62 0 0.0 0.0 0.00 0.16 0.01 71 1008.5
20260507201907 62 0 0.0 0.0 0.00 0.16 0.01 74 1008.4
20260507201408 62 0 0.0 0.0 0.00 0.16 0.01 73 1008.4
20260507200908 62 0 0.0 0.0 0.00 0.16 0.01 74 1008.6
20260507200408 62 0 0.0 0.0 0.00 0.16 0.01 73 1008.7
20260507195908 62 0 0.0 0.0 0.00 0.16 0.01 72 1008.8
20260507195408 62 0 0.0 0.0 0.00 0.16 0.01 73 1008.8
20260507194907 62 0 0.0 0.0 0.00 0.16 0.01 72 1008.8
20260507194408 62 0 0.0 0.0 0.00 0.16 0.01 70 1008.7
20260507193908 62 0 0.0 0.0 0.00 0.16 0.01 71 1008.9
20260507193408 63 0 0.0 0.0 0.00 0.16 0.01 71 1009.2
20260507192908 63 0 0.0 0.0 0.00 0.16 0.01 74 1009.2
20260507192407 62 0 0.0 0.0 0.00 0.16 0.01 74 1009.4
20260507191908 62 0 0.0 6.0 0.00 0.16 0.01 72 1009.3
20260507191409 62 9 2.0 6.0 0.00 0.16 0.01 72 1009.3
20260507190908 62 202 6.0 10.0 0.00 0.16 0.01 74 1009.3
20260507190408 61 202 6.0 10.0 0.00 0.16 0.01 75 1009.3
20260507185908 61 195 3.0 7.0 0.00 0.16 0.01 70 1009.4
20260507185407 62 173 3.0 7.0 0.00 0.16 0.01 72 1009.6
20260507184908 62 173 4.0 10.0 0.00 0.16 0.01 75 1009.5
20260507184408 62 175 6.0 10.0 0.00 0.16 0.01 74 1009.8
20260507183908 61 149 3.0 10.0 0.00 0.16 0.01 73 1009.8
20260507183408 61 120 4.0 10.0 0.00 0.16 0.01 75 1009.8
20260507182908 61 208 3.0 7.0 0.00 0.16 0.01 75 1009.8
20260507182407 60 161 3.0 9.0 0.00 0.16 0.01 78 1009.8
20260507181907 59 144 2.0 9.0 0.00 0.16 0.01 73 1009.8
20260507181407 59 138 5.0 9.0 0.00 0.16 0.01 77 1009.8
20260507180908 59 119 5.0 7.0 0.00 0.16 0.01 75 1010.0
20260507180408 59 135 3.0 8.0 0.01 0.16 0.01 77 1010.1
20260507175908 59 73 1.0 8.0 0.01 0.16 0.01 76 1010.3
20260507175408 58 115 2.0 8.0 0.01 0.16 0.01 79 1010.3
20260507174908 58 113 2.0 7.0 0.01 0.16 0.01 82 1010.2
20260507174408 57 132 2.0 6.0 0.01 0.16 0.01 80 1010.4
20260507173908 57 114 2.0 6.0 0.01 0.16 0.01 81 1010.4
20260507173407 56 112 2.0 6.0 0.01 0.16 0.01 79 1010.4
20260507172908 56 95 4.0 7.0 0.01 0.16 0.01 80 1010.5
20260507172407 56 96 4.0 7.0 0.01 0.16 0.01 82 1010.8
20260507171907 56 68 3.0 8.0 0.01 0.16 0.01 83 1010.9
20260507171407 55 68 6.0 8.0 0.01 0.16 0.01 82 1010.8
20260507170907 55 134 5.0 8.0 0.01 0.16 0.01 82 1011.0
20260507170408 55 81 3.0 8.0 0.00 0.15 0.00 83 1011.0
20260507165907 55 111 1.0 7.0 0.00 0.15 0.00 84 1011.1
20260507165408 55 86 4.0 9.0 0.00 0.15 0.00 83 1011.1
20260507164908 55 85 7.0 9.0 0.00 0.15 0.00 83 1011.1
20260507164408 55 76 5.0 9.0 0.00 0.15 0.00 83 1011.1
20260507163908 55 53 5.0 12.0 0.00 0.15 0.00 83 1011.3
20260507163408 55 70 5.0 12.0 0.00 0.15 0.00 83 1011.3
20260507162908 55 60 6.0 13.0 0.00 0.15 0.00 84 1011.4
20260507162408 55 79 10.0 13.0 0.00 0.15 0.00 85 1011.4
20260507161907 55 74 8.0 13.0 0.00 0.15 0.00 84 1011.7
20260507161407 55 54 5.0 14.0 0.00 0.15 0.00 85 1011.6
20260507160907 55 62 10.0 14.0 0.00 0.15 0.00 86 1011.8
20260507160408 54 72 11.0 14.0 0.00 0.15 0.00 87 1011.8
20260507155908 54 77 9.0 12.0 0.00 0.15 0.00 88 1011.9
20260507155408 53 72 10.0 12.0 0.00 0.15 0.00 87 1011.9
20260507154907 53 57 5.0 10.0 0.00 0.15 0.00 87 1012.0
20260507154407 53 42 3.0 12.0 0.00 0.15 0.00 88 1012.1
20260507153908 53 64 7.0 12.0 0.00 0.15 0.00 88 1012.1
20260507153407 53 75 7.0 12.0 0.00 0.15 0.00 88 1012.0
20260507152907 53 62 7.0 12.0 0.00 0.15 0.00 89 1012.1
20260507152407 53 42 6.0 12.0 0.00 0.15 0.00 89 1012.1
20260507151908 53 70 7.0 12.0 0.00 0.15 0.00 89 1012.2
20260507151408 53 43 6.0 12.0 0.00 0.15 0.00 89 1012.2
20260507150908 53 57 7.0 12.0 0.00 0.15 0.00 92 1012.0
20260507150408 53 43 6.0 12.0 0.00 0.15 0.00 89 1012.0
20260507145907 53 33 7.0 13.0 0.00 0.15 0.00 89 1012.0
20260507145408 53 39 10.0 13.0 0.00 0.15 0.00 89 1012.0
20260507144908 53 44 9.0 13.0 0.00 0.15 0.00 89 1012.1
20260507144407 53 29 9.0 13.0 0.00 0.15 0.00 89 1012.1
20260507143907 53 42 5.0 12.0 0.00 0.15 0.00 89 1012.4
20260507143407 53 53 9.0 10.0 0.00 0.15 0.00 89 1012.4
20260507142907 53 52 5.0 8.0 0.00 0.15 0.00 89 1012.5
20260507142407 53 28 6.0 8.0 0.00 0.15 0.00 90 1012.5
20260507141907 53 53 5.0 10.0 0.00 0.15 0.00 90 1012.5
20260507141407 53 45 5.0 10.0 0.00 0.15 0.00 90 1012.5
20260507140907 53 36 7.0 10.0 0.00 0.15 0.00 90 1012.6
20260507140407 52 34 7.0 9.0 0.00 0.15 0.00 90 1012.6
20260507135907 52 29 6.0 9.0 0.00 0.15 0.00 90 1012.6
20260507135407 52 43 7.0 9.0 0.00 0.15 0.00 90 1012.6
20260507134907 52 36 7.0 12.0 0.00 0.15 0.00 90 1012.7
20260507134407 53 30 6.0 12.0 0.00 0.15 0.00 90 1012.7
20260507133907 53 46 7.0 10.0 0.00 0.15 0.00 90 1012.7
20260507133407 53 36 7.0 9.0 0.00 0.15 0.00 90 1012.7
20260507132907 52 37 5.0 10.0 0.00 0.15 0.00 90 1012.7
20260507132407 52 27 6.0 10.0 0.00 0.15 0.00 90 1012.6
20260507131907 52 34 8.0 10.0 0.00 0.15 0.00 90 1012.7
20260507131408 52 35 6.0 10.0 0.00 0.15 0.00 91 1012.7
20260507130907 53 43 7.0 10.0 0.00 0.15 0.00 91 1012.6
20260507130406 52 31 5.0 9.0 0.00 0.15 0.00 91 1012.6
20260507125907 52 29 6.0 9.0 0.00 0.15 0.00 91 1012.7
20260507125406 53 36 6.0 10.0 0.00 0.15 0.00 91 1012.7
20260507124907 52 37 6.0 10.0 0.00 0.15 0.00 91 1012.7
20260507124407 52 31 5.0 10.0 0.00 0.15 0.00 91 1012.7
20260507123907 52 42 4.0 10.0 0.00 0.15 0.00 90 1012.6
20260507123407 52 28 7.0 10.0 0.00 0.17 0.00 90 1012.6
20260507122907 52 39 6.0 9.0 0.00 0.18 0.00 91 1012.5
20260507122407 52 30 6.0 9.0 0.00 0.18 0.00 90 1012.7
20260507121907 52 29 6.0 10.0 0.00 0.18 0.00 90 1012.3
20260507121406 52 40 7.0 10.0 0.00 0.18 0.00 91 1012.3
20260507120906 52 52 6.0 7.0 0.00 0.19 0.00 90 1012.3
20260507120407 52 30 4.0 7.0 0.00 0.19 0.00 90 1012.3
20260507115907 52 38 2.0 7.0 0.00 0.19 0.00 90 1012.3
20260507115407 52 21 3.0 8.0 0.00 0.19 0.00 90 1012.4
20260507114907 52 31 5.0 8.0 0.00 0.19 0.00 90 1012.3
20260507114407 52 43 6.0 7.0 0.00 0.19 0.00 90 1012.3
20260507113907 52 47 5.0 9.0 0.00 0.19 0.00 90 1012.3
20260507113407 52 47 4.0 9.0 0.00 0.19 0.00 90 1012.3
20260507112907 52 25 5.0 9.0 0.00 0.20 0.00 90 1012.1
20260507112406 52 41 6.0 9.0 0.00 0.20 0.00 90 1012.1
20260507111907 52 45 6.0 9.0 0.00 0.20 0.00 90 1012.1
20260507111407 52 28 6.0 9.0 0.00 0.20 0.00 90 1012.1
20260507110907 52 36 5.0 12.0 0.00 0.20 0.00 90 1012.0
20260507110407 52 29 7.0 12.0 0.00 0.20 0.00 90 1011.9
20260507105906 52 34 6.0 12.0 0.00 0.20 0.00 90 1011.9
20260507105407 52 38 6.0 9.0 0.00 0.20 0.00 90 1011.9
20260507104907 52 52 6.0 12.0 0.00 0.20 0.00 90 1011.7
20260507104407 52 45 8.0 12.0 0.00 0.20 0.00 90 1011.6
20260507103907 52 27 6.0 12.0 0.00 0.20 0.00 90 1011.7
20260507103407 52 27 7.0 12.0 0.00 0.20 0.00 90 1011.4
20260507102907 52 41 8.0 13.0 0.00 0.20 0.00 90 1011.5
20260507102407 52 48 9.0 13.0 0.00 0.20 0.00 90 1011.5
20260507101907 52 43 8.0 12.0 0.00 0.20 0.00 90 1011.5
20260507101406 52 40 7.0 12.0 0.00 0.20 0.00 90 1011.6
20260507100907 52 39 7.0 12.0 0.00 0.20 0.00 90 1011.6
20260507100407 52 42 8.0 14.0 0.00 0.20 0.00 90 1011.7
20260507095907 52 45 10.0 14.0 0.00 0.20 0.00 90 1011.7
20260507095407 52 34 9.0 13.0 0.00 0.20 0.00 90 1011.6
20260507094907 52 42 9.0 16.0 0.00 0.20 0.00 90 1011.6
20260507094407 52 37 9.0 16.0 0.00 0.20 0.00 90 1011.6
20260507093906 52 33 10.0 14.0 0.00 0.20 0.00 90 1011.5
20260507093406 52 37 9.0 14.0 0.00 0.20 0.00 90 1011.5
20260507092907 52 32 10.0 14.0 0.00 0.20 0.00 90 1011.1
20260507092406 52 26 9.0 14.0 0.00 0.20 0.00 90 1011.1
20260507091906 53 41 7.0 13.0 0.00 0.20 0.00 90 1011.1
20260507091406 53 57 8.0 13.0 0.00 0.20 0.00 90 1011.1
20260507090906 53 42 9.0 13.0 0.00 0.20 0.00 90 1011.2
20260507090407 53 41 7.0 13.0 0.00 0.20 0.00 90 1011.3
20260507085907 53 52 9.0 14.0 0.00 0.20 0.00 89 1011.4
20260507085406 53 54 7.0 14.0 0.00 0.20 0.00 89 1011.2
20260507084906 53 41 7.0 10.0 0.00 0.20 0.00 89 1011.1
20260507084406 53 41 6.0 12.0 0.00 0.20 0.00 89 1011.3
20260507083907 54 34 8.0 12.0 0.00 0.20 0.00 89 1010.9
20260507083406 54 44 7.0 12.0 0.00 0.20 0.00 89 1010.9
20260507082907 54 44 7.0 12.0 0.00 0.20 0.00 89 1010.9
20260507082406 54 45 8.0 12.0 0.00 0.20 0.00 89 1010.9
20260507081906 54 45 7.0 12.0 0.00 0.20 0.00 89 1011.1
20260507081406 54 21 6.0 12.0 0.00 0.20 0.00 89 1010.8
20260507080907 54 45 8.0 12.0 0.00 0.20 0.00 89 1011.0
20260507080407 54 27 7.0 12.0 0.00 0.20 0.00 89 1011.1
20260507075906 54 24 8.0 13.0 0.00 0.20 0.00 89 1011.1
20260507075406 54 28 9.0 13.0 0.00 0.20 0.00 89 1011.0
20260507074906 54 29 9.0 13.0 0.00 0.20 0.00 89 1010.9
20260507074407 55 31 8.0 13.0 0.00 0.20 0.00 89 1011.3
20260507073906 55 36 10.0 14.0 0.00 0.20 0.00 89 1011.1
20260507073406 55 35 9.0 14.0 0.00 0.20 0.00 89 1010.9
20260507072907 55 51 10.0 14.0 0.00 0.20 0.00 89 1011.1
20260507072406 55 44 10.0 20.0 0.00 0.20 0.00 90 1011.1
20260507071906 55 27 9.0 20.0 0.00 0.20 0.00 90 1010.5
20260507071406 55 42 13.0 17.0 0.00 0.20 0.00 89 1010.4
20260507070906 55 30 11.0 16.0 0.00 0.20 0.00 90 1010.6
20260507070405 56 38 9.0 15.0 0.00 0.20 0.00 90 1010.4
20260507065906 56 53 8.0 12.0 0.00 0.20 0.00 89 1010.4
20260507065406 56 65 6.0 12.0 0.00 0.20 0.00 89 1010.4
20260507064906 56 40 8.0 12.0 0.00 0.20 0.00 89 1010.4
20260507064407 56 41 9.0 12.0 0.00 0.20 0.00 89 1010.4
20260507063906 57 49 6.0 13.0 0.00 0.20 0.00 89 1010.5
20260507063406 57 63 7.0 13.0 0.00 0.20 0.00 90 1010.5
20260507062905 57 42 9.0 13.0 0.00 0.20 0.00 89 1010.5
20260507062406 58 36 10.0 12.0 0.00 0.20 0.00 89 1010.6
20260507061906 58 40 7.0 10.0 0.00 0.20 0.00 89 1010.5
20260507061406 58 56 7.0 12.0 0.00 0.20 0.00 89 1010.5
20260507060906 58 20 8.0 12.0 0.00 0.20 0.00 89 1010.5
20260507060406 59 4 6.0 8.0 0.00 0.20 0.00 89 1010.5
20260507055906 59 52 5.0 8.0 0.00 0.20 0.00 89 1010.7
20260507055406 60 5 5.0 7.0 0.00 0.20 0.00 88 1010.6
20260507054906 60 87 2.0 6.0 0.00 0.20 0.00 89 1010.7
20260507054406 60 38 4.0 6.0 0.00 0.20 0.00 89 1010.7
20260507053906 60 17 3.0 3.0 0.00 0.20 0.00 89 1010.7
20260507053406 60 356 2.0 3.0 0.00 0.20 0.00 89 1010.8
20260507052906 60 356 0.0 3.0 0.00 0.20 0.00 89 1010.8
20260507052405 60 356 1.0 7.0 0.00 0.20 0.00 89 1010.4
20260507051907 60 335 0.0 9.0 0.00 0.20 0.00 89 1010.4
20260507051406 60 350 4.0 10.0 0.00 0.20 0.00 89 1010.4
20260507050905 60 336 5.0 12.0 0.00 0.20 0.00 89 1010.0
20260507050406 61 349 7.0 12.0 0.00 0.20 0.00 89 1010.0
20260507045906 61 0 9.0 12.0 0.00 0.20 0.00 89 1009.9
20260507045406 61 348 5.0 12.0 0.03 0.20 0.00 89 1009.6
20260507044906 61 2 5.0 14.0 0.13 0.20 0.00 89 1009.1
20260507044406 61 48 5.0 17.0 0.13 0.20 0.00 90 1008.9
20260507043906 61 83 10.0 18.0 0.13 0.20 0.00 90 1008.9
20260507043405 62 95 15.0 18.0 0.13 0.20 0.00 90 1009.2
20260507042906 62 88 9.0 14.0 0.13 0.20 0.00 90 1010.0
20260507042405 62 79 6.0 12.0 0.13 0.20 0.00 90 1010.0
20260507041906 62 58 4.0 7.0 0.13 0.20 0.00 90 1010.1
20260507041406 63 54 5.0 9.0 0.13 0.20 0.00 90 1010.5
20260507040905 63 37 4.0 9.0 0.13 0.20 0.00 89 1010.5
20260507040406 63 29 7.0 9.0 0.13 0.20 0.00 89 1010.3
20260507035906 63 40 5.0 8.0 0.13 0.20 0.20 89 1010.2
20260507035406 63 27 5.0 7.0 0.12 0.19 0.19 89 1010.8
20260507034905 63 357 6.0 7.0 0.02 0.09 0.09 89 1010.9
20260507034406 63 349 2.0 6.0 0.00 0.07 0.07 88 1010.3
20260507033905 64 34 5.0 6.0 0.00 0.07 0.07 88 1010.3
20260507033406 64 48 2.0 6.0 0.00 0.07 0.07 88 1010.5
20260507032906 64 48 2.0 8.0 0.01 0.07 0.07 88 1010.5
20260507032406 64 76 6.0 8.0 0.01 0.07 0.07 88 1010.4
20260507031906 64 58 2.0 8.0 0.02 0.07 0.07 87 1010.4
20260507031405 65 87 5.0 8.0 0.02 0.07 0.07 87 1010.3
20260507030906 65 114 4.0 7.0 0.02 0.07 0.07 87 1010.3
20260507030406 65 121 4.0 9.0 0.02 0.07 0.07 87 1010.1
20260507025905 66 68 6.0 9.0 0.02 0.07 0.07 86 1009.8
20260507025405 67 60 7.0 8.0 0.02 0.07 0.07 86 1009.9
20260507024906 67 34 3.0 5.0 0.02 0.07 0.07 86 1010.0
20260507024406 67 71 2.0 3.0 0.02 0.07 0.07 85 1009.5
20260507023905 67 68 3.0 3.0 0.02 0.07 0.07 85 1009.5
20260507023407 68 51 2.0 3.0 0.02 0.07 0.07 84 1009.5
20260507022906 68 288 0.0 2.0 0.01 0.06 0.06 83 1009.5
20260507022405 68 288 1.0 3.0 0.01 0.06 0.06 82 1009.5
20260507021906 68 288 2.0 8.0 0.00 0.05 0.05 82 1009.5
20260507021405 68 284 3.0 8.0 0.00 0.05 0.05 81 1009.5
20260507020906 68 251 7.0 8.0 0.00 0.05 0.05 81 1009.2
20260507020406 68 242 5.0 6.0 0.00 0.05 0.05 81 1009.2
20260507015905 69 214 5.0 7.0 0.00 0.05 0.05 80 1009.2
20260507015406 69 212 5.0 9.0 0.00 0.05 0.05 80 1009.2
20260507014906 69 202 3.0 9.0 0.00 0.05 0.05 80 1009.1
20260507014405 69 192 4.0 12.0 0.00 0.05 0.05 80 1009.2
20260507013905 69 195 6.0 12.0 0.00 0.05 0.05 80 1009.1
20260507013405 68 196 3.0 7.0 0.00 0.05 0.05 80 1008.8
20260507012906 68 153 3.0 7.0 0.00 0.05 0.05 80 1008.8
20260507012406 68 173 3.0 7.0 0.00 0.05 0.05 80 1008.8
20260507011906 68 144 3.0 7.0 0.00 0.05 0.05 80 1009.1
20260507011405 68 162 4.0 7.0 0.00 0.05 0.05 80 1009.1
20260507010406 69 192 4.0 6.0 0.00 0.05 0.05 80 1009.4
20260507005906 69 175 2.0 6.0 0.00 0.05 0.05 79 1009.4
20260507005406 69 196 4.0 6.0 0.00 0.05 0.05 79 1009.4
20260507004906 69 205 5.0 8.0 0.00 0.05 0.05 79 1009.4
20260507004405 69 215 5.0 8.0 0.00 0.05 0.05 79 1009.4
20260507003908 69 191 3.0 9.0 0.00 0.05 0.05 78 1009.4
20260507003406 69 204 5.0 9.0 0.00 0.05 0.05 78 1009.4
20260507002906 70 213 6.0 10.0 0.00 0.05 0.05 77 1009.2
20260507002405 70 209 6.0 10.0 0.00 0.05 0.05 78 1009.2
20260507001905 70 212 3.0 9.0 0.00 0.05 0.05 77 1009.2
20260507001405 70 199 4.0 10.0 0.00 0.05 0.05 77 1009.1
20260507000906 70 202 7.0 10.0 0.00 0.05 0.05 77 1009.1
20260507000406 70 194 6.0 10.0 0.00 0.05 0.05 76 1009.1
20260506235906 70 200 7.0 9.0 0.00 0.05 0.05 76 1009.1
20260506235409 71 201 5.0 10.0 0.00 0.05 0.05 76 1008.9
20260506234905 71 187 6.0 10.0 0.00 0.05 0.05 76 1009.0
20260506234405 71 192 7.0 10.0 0.00 0.05 0.05 75 1008.7
20260506233905 71 193 6.0 9.0 0.00 0.05 0.05 74 1008.8
20260506233406 72 194 3.0 12.0 0.00 0.05 0.05 74 1008.7
20260506232905 72 142 5.0 12.0 0.00 0.05 0.05 74 1008.6
20260506232405 72 192 7.0 13.0 0.00 0.05 0.05 73 1008.7
20260506231906 72 215 9.0 13.0 0.00 0.05 0.05 72 1008.9
20260506231405 72 206 7.0 15.0 0.00 0.05 0.05 73 1008.9
20260506230905 73 212 8.0 15.0 0.00 0.05 0.05 73 1009.0
20260506230405 73 207 6.0 12.0 0.00 0.05 0.05 72 1008.7
20260506225905 73 210 8.0 12.0 0.00 0.05 0.05 73 1008.4
20260506225405 73 217 7.0 12.0 0.00 0.05 0.05 71 1008.1
20260506224905 73 201 7.0 15.0 0.00 0.05 0.05 72 1008.1
20260506224405 74 187 11.0 15.0 0.00 0.05 0.05 74 1008.1
20260506223905 74 213 6.0 14.0 0.00 0.05 0.05 71 1008.1
20260506223405 74 194 9.0 18.0 0.00 0.05 0.05 71 1008.1
20260506222905 74 199 9.0 21.0 0.00 0.05 0.05 71 1008.2
20260506222405 74 204 13.0 21.0 0.00 0.05 0.05 70 1008.1
20260506221905 74 184 13.0 21.0 0.00 0.05 0.05 70 1008.1
20260506221405 74 212 10.0 21.0 0.00 0.05 0.05 71 1008.1
20260506220905 74 201 13.0 21.0 0.00 0.05 0.05 71 1008.1
20260506220404 74 208 7.0 20.0 0.00 0.05 0.05 70 1008.4
20260506215905 75 217 13.0 21.0 0.00 0.05 0.05 70 1008.0
20260506215405 75 200 16.0 21.0 0.00 0.05 0.05 71 1008.0
20260506214904 74 211 14.0 18.0 0.00 0.05 0.05 72 1008.0
20260506214406 74 217 14.0 17.0 0.00 0.05 0.05 70 1008.0